Theta_e
302 302 301 300 300 300 298 298 299 299 299 302 305 305 306 309 313 320 321 321 321 321 327 331 332 333 333 332 331 329 325 326 328 329 330 330 330 330 329 329 326 321 322 323
301 302 301 300 301 300 300 296 295 299 302 302 305 308 309 308 315 319 321 320 320 321 324 328 331 333 333 331 332 331 327 326 327 328 328 330 330 331 330 329 326 326 325 325
303 303 302 301 302 302 301 300 298 299 303 305 309 310 311 312 316 319 319 320 322 322 322 326 330 331 332 333 332 331 329 329 327 328 329 329 330 331 331 329 327 328 328 326
303 303 303 303 302 303 303 301 300 300 303 306 308 313 315 315 317 318 317 318 319 320 321 322 324 329 330 330 331 330 330 330 329 329 330 328 330 332 329 329 328 328 327 328
305 306 304 304 303 302 302 301 301 302 306 308 311 314 316 317 318 316 311 309 314 316 312 317 320 322 325 327 327 327 329 329 330 330 330 328 327 328 329 328 328 329 329 328
304 303 303 303 302 303 302 304 304 305 305 310 309 314 316 316 317 312 307 305 308 313 309 312 317 320 324 324 325 324 324 322 328 327 329 327 325 329 325 324 326 329 330 329
303 307 307 305 305 305 305 308 308 309 310 309 313 314 308 307 312 308 304 303 305 308 307 308 312 316 319 322 322 321 321 321 327 329 329 327 325 325 325 325 325 327 329 330
302 307 307 308 310 310 308 308 311 314 313 313 309 310 307 302 301 299 299 300 301 303 307 306 309 311 316 320 322 321 320 320 322 326 328 328 326 328 328 328 328 327 328 328
304 307 306 306 306 310 311 310 308 311 307 309 308 306 306 303 301 299 298 298 299 302 304 304 307 309 311 315 315 318 320 321 322 324 326 327 327 325 324 328 328 328 327 327
304 307 306 305 306 307 308 307 310 312 312 311 312 310 309 306 303 301 299 297 297 300 304 304 306 308 308 311 312 312 315 318 320 317 322 318 323 325 325 324 324 323 326 326
305 306 308 308 309 309 308 309 309 308 310 312 312 309 305 305 305 303 300 298 297 298 301 301 303 305 306 307 309 308 312 314 316 316 316 320 318 320 322 323 322 323 322 324
304 306 308 309 308 307 307 307 307 311 309 308 308 306 301 299 301 301 300 299 298 299 300 302 303 303 305 306 307 308 309 309 311 314 314 314 315 316 315 316 316 317 317 318
303 302 305 307 306 306 306 304 304 305 307 308 309 306 300 297 296 298 298 299 299 300 301 301 301 302 303 306 308 309 309 309 309 307 308 310 311 312 311 311 310 310 310 311
302 304 302 307 305 303 302 303 303 302 304 307 307 305 302 299 297 295 296 297 298 299 301 300 301 302 302 305 306 308 308 309 309 308 308 309 310 311 311 312 312 313 312 312
301 302 303 301 301 302 300 299 302 301 296 302 305 305 302 299 296 295 295 295 297 298 300 300 300 300 301 302 303 303 305 305 307 308 309 309 309 310 309 307 308 307 307 307
297 303 298 299 297 301 301 299 299 300 299 300 301 302 299 297 297 296 296 296 296 295 296 297 297 299 299 299 300 301 302 302 303 303 304 305 305 306 306 306 307 307 307 307
293 293 295 300 293 295 300 298 296 299 298 297 300 300 299 299 298 297 297 297 296 296 297 298 298 298 298 299 299 300 301 301 302 301 302 302 302 303 304 304 304 304 305 306
288 286 285 294 292 298 300 296 294 298 297 298 298 297 297 296 296 297 297 297 297 297 297 297 297 298 298 299 299 299 300 300 301 301 302 302 301 302 302 301 301 302 303 302
291 287 288 290 282 293 294 293 294 296 298 295 297 295 296 297 298 296 298 298 298 298 297 298 298 298 298 299 299 299 300 300 300 300 300 300 300 300 300 300 300 299 298 298
291 289 290 279 284 288 291 291 293 292 298 294 297 296 296 298 297 295 297 298 298 298 298 298 298 298 298 298 298 297 297 297 298 298 299 299 298 298 298 297 297 297 297 297
282 281 282 279 279 285 289 291 292 293 295 294 295 297 298 295 296 297 297 298 298 298 298 298 298 298 298 298 298 297 297 297 297 297 297 297 297 297 297 297 297 297 297 296
286 282 279 273 279 287 289 292 292 292 293 294 297 297 296 297 297 296 296 296 297 297 298 298 298 298 298 298 297 297 297 297 297 297 297 297 297 297 297 297 296 296 294 293
287 285 284 286 286 289 291 292 292 293 293 293 296 295 297 295 293 293 292 292 292 292 293 294 296 297 298 298 297 298 298 298 298 297 297 297 297 297 297 296 296 295 293 292
284 285 284 285 286 289 291 292 292 293 293 293 293 293 293 292 292 293 293 293 293 293 292 292 292 292 293 296 297 298 298 298 298 298 297 297 296 296 296 295 295 294 293 292
286 285 282 283 286 290 291 293 293 293 294 293 293 292 292 292 293 293 292 292 292 292 292 292 292 292 292 292 292 294 296 298 298 297 297 297 297 296 296 295 294 293 292 292
287 285 287 287 291 291 292 292 291 291 293 293 293 293 293 292 292 292 292 292 292 292 292 292 292 292 291 291 292 292 292 292 293 295 297 297 296 296 296 296 296 297 296 296
Wind_Speed
14 8 17 25 22 10 6 9 9 6 15 9 14 18 21 25 19 18 19 25 22 16 13 20 23 26 27 24 33 38 40 39 38 35 35 36 34 31 27 22 19 20 20 19
5 21 26 15 14 18 13 7 10 12 11 11 13 14 11 16 18 24 21 16 13 17 16 14 18 25 28 30 32 42 43 41 40 38 36 35 35 33 27 23 19 19 20 18
16 24 14 20 17 20 21 19 17 12 3 16 4 10 11 13 17 17 21 21 15 14 15 13 16 23 26 33 40 43 45 44 41 41 37 35 34 34 29 27 25 23 20 20
13 20 16 14 24 18 20 24 18 15 6 10 14 5 9 17 14 13 14 19 19 12 10 12 14 19 21 22 30 24 41 42 43 44 40 35 35 37 31 31 27 25 23 22
6 6 15 15 21 22 15 15 22 18 16 15 15 4 4 14 16 8 10 15 18 17 13 12 12 12 19 17 22 21 32 31 50 46 40 38 35 34 31 28 27 28 27 25
13 6 12 8 14 20 13 10 16 11 9 7 13 9 7 13 12 11 9 15 15 17 12 11 12 12 11 13 13 10 24 17 37 37 38 41 39 38 34 32 30 32 29 28
5 3 2 7 11 15 16 7 6 7 5 5 8 14 3 8 6 14 13 13 14 14 11 10 11 10 13 13 11 6 3 24 26 43 40 42 38 36 35 33 30 30 30 28
3 3 2 7 6 4 13 9 3 6 6 4 4 4 3 6 19 21 20 18 15 16 14 10 12 12 13 11 10 10 3 16 14 17 30 32 37 28 34 30 20 27 20 18
4 3 2 3 2 2 6 7 1 2 2 4 3 4 2 7 12 16 15 15 14 15 16 12 12 13 12 11 11 12 12 13 10 15 19 25 32 31 28 23 20 19 16 19
4 5 3 3 4 6 2 5 3 3 4 4 5 7 3 4 9 9 10 13 11 15 17 14 12 13 14 12 9 10 12 10 12 8 13 15 19 20 20 16 12 12 11 13
5 3 5 0 6 2 3 2 2 2 3 3 4 4 7 3 8 10 9 13 12 15 19 15 15 15 15 15 13 13 9 8 8 8 6 7 10 9 8 9 12 13 13 13
3 3 3 3 3 1 3 4 3 1 3 4 3 3 8 8 7 12 13 15 12 13 16 14 14 13 15 15 15 15 14 10 10 10 10 13 16 14 13 12 11 9 8 7
7 4 3 6 3 3 6 8 5 5 3 7 3 3 5 8 11 14 13 13 10 11 11 10 8 10 10 12 14 14 14 13 14 12 14 15 13 12 9 6 5 4 4 3
3 6 4 6 4 4 6 18 10 4 4 8 8 7 6 7 9 11 11 11 10 8 8 5 5 5 6 6 7 7 7 6 5 4 4 6 7 6 2 3 5 6 7 9
4 7 9 9 6 9 17 18 20 12 2 6 8 10 6 6 7 8 9 10 10 11 9 5 5 6 5 6 5 5 5 5 6 5 5 3 3 4 3 3 3 2 3 3
8 3 5 6 11 15 17 23 18 14 10 11 11 10 4 12 14 14 11 10 10 9 9 7 6 5 5 6 6 6 6 5 5 3 3 4 5 6 4 6 7 5 6 6
5 3 5 5 9 6 10 13 13 5 8 2 6 3 3 8 12 13 9 9 9 9 9 9 7 6 6 6 7 7 9 7 7 6 7 7 8 7 7 8 9 9 8 8
1 3 2 2 6 7 5 8 6 8 11 11 10 6 9 12 15 15 12 11 10 8 8 8 7 6 7 6 8 8 8 8 9 8 9 8 8 7 7 7 6 7 7 6
4 3 4 4 2 2 4 6 5 5 6 6 5 5 10 11 11 14 11 10 10 8 7 7 7 7 7 8 8 8 7 8 8 7 8 8 8 7 6 5 5 6 5 6
5 7 4 4 6 3 3 5 5 4 4 7 5 5 5 6 4 2 6 8 10 9 8 8 8 7 7 7 8 8 6 6 7 7 7 6 6 6 6 6 6 5 5 4
6 5 5 3 3 5 5 8 6 5 3 4 2 4 5 3 4 8 8 9 9 10 9 8 8 7 7 7 7 6 6 6 6 6 6 5 5 5 5 4 4 4 3 3
2 3 0 3 5 3 4 6 2 1 2 3 5 5 5 14 12 10 11 10 11 9 9 7 7 6 5 5 6 5 5 6 6 5 4 4 3 3 3 2 1 1 1 2
3 4 3 4 5 3 1 4 4 6 7 4 7 12 15 15 12 10 10 11 11 11 9 9 7 5 4 3 2 3 3 4 5 4 3 3 1 1 1 2 2 3 3 3
3 3 0 4 3 4 3 4 5 6 9 10 13 13 10 13 13 11 9 9 8 8 7 7 6 5 3 1 1 2 3 4 2 2 2 2 2 3 3 4 4 5 5 6
2 3 2 4 6 5 5 6 1 3 5 7 8 8 8 7 7 7 7 5 5 5 5 6 6 6 6 5 4 4 4 5 5 6 5 3 3 5 6 5 5 7 8 9
8 5 3 4 3 3 1 6 6 4 4 6 6 7 7 7 6 5 3 2 4 4 5 6 7 7 7 7 7 7 7 7 9 10 10 11 12 11 10 9 10 10 11 12
Wind_Direction
189 203 214 214 211 219 199 226 255 237 232 242 237 238 239 251 263 210 212 223 244 265 241 221 208 204 216 208 208 201 201 199 198 198 199 200 200 198 199 203 204 201 196 195
211 225 219 211 216 215 219 206 238 264 269 226 249 260 248 237 248 218 208 214 215 237 231 202 202 195 205 212 217 203 202 198 200 202 205 204 201 200 203 201 202 203 203 201
216 237 209 201 213 213 213 214 222 224 303 226 191 267 240 258 239 209 208 213 212 226 232 200 170 192 192 191 203 200 202 201 202 205 206 206 206 200 203 204 202 205 209 204
241 257 225 207 213 194 216 211 222 228 237 243 177 255 214 212 188 194 162 174 176 184 203 196 187 176 195 199 200 198 202 206 205 202 204 207 203 202 207 207 207 209 213 218
248 227 193 206 211 202 236 194 207 210 227 234 191 231 171 174 182 167 130 137 156 172 182 175 158 172 194 191 203 212 216 213 212 212 206 210 209 211 211 214 214 217 218 219
265 288 186 200 196 197 193 198 196 217 252 226 214 211 165 177 177 144 132 137 142 150 163 142 156 165 173 197 210 217 230 257 206 217 215 211 210 210 215 219 227 225 222 225
311 175 191 232 187 202 199 173 173 195 173 240 198 195 15 334 196 143 130 115 131 139 136 132 125 148 156 164 173 184 252 231 171 201 217 205 205 211 213 216 221 228 226 229
317 333 217 169 231 196 191 219 233 193 172 136 339 80 30 36 81 95 106 126 123 122 114 106 115 118 128 148 161 160 272 273 227 192 212 204 210 205 212 204 193 212 217 228
305 285 254 317 308 187 147 204 187 237 25 100 115 97 125 89 80 89 92 96 97 104 109 109 108 110 114 119 145 150 184 221 218 260 198 230 230 240 236 204 215 232 233 210
285 294 352 350 281 68 262 131 187 216 131 86 83 65 22 89 106 99 96 92 101 109 106 106 111 107 104 114 112 115 131 157 155 173 190 161 163 179 186 170 176 178 194 187
293 272 313 227 21 5 339 3 11 121 16 122 122 74 340 66 120 125 121 123 118 107 113 115 105 104 102 101 104 99 99 111 124 130 125 139 125 147 146 170 180 184 197 203
302 320 27 343 264 325 332 321 260 69 83 41 69 68 10 52 82 116 124 119 127 124 117 111 107 109 105 105 101 97 98 97 112 130 117 106 107 111 98 81 79 88 95 86
333 14 15 338 21 28 33 341 330 83 65 38 88 105 53 58 67 79 102 117 128 116 104 109 124 119 119 116 111 107 101 97 91 99 110 104 93 83 85 89 87 113 95 102
23 14 77 73 33 327 26 17 19 82 75 81 59 106 74 70 82 78 79 104 115 122 115 155 150 136 133 130 134 141 140 134 118 114 78 72 67 62 49 324 306 300 285 274
55 36 52 62 32 51 54 32 39 57 9 76 98 80 59 56 73 90 99 89 100 114 124 129 121 114 106 119 126 132 138 153 171 191 210 224 289 327 329 272 274 226 187 172
346 32 344 24 4 42 50 24 23 37 46 70 86 69 32 89 97 88 95 100 101 104 107 100 95 95 92 93 102 111 114 102 89 105 144 162 159 141 138 139 139 139 144 135
12 36 14 336 346 16 34 0 359 15 13 128 74 93 84 60 53 52 67 77 85 88 91 90 85 87 95 97 97 93 93 98 103 109 103 105 105 111 125 128 132 135 133 135
298 82 33 293 354 44 317 311 260 36 35 50 72 58 64 89 80 65 68 84 86 85 92 98 101 105 103 98 91 96 103 109 106 105 104 106 109 113 116 121 126 125 133 127
5 101 57 86 45 307 342 356 9 20 7 15 76 65 90 100 78 52 57 71 83 87 94 105 110 107 103 99 94 91 93 93 95 104 106 111 112 110 115 115 106 105 110 118
11 52 91 38 86 107 260 314 346 314 16 1 111 117 130 3 53 316 69 87 93 96 94 91 94 94 94 95 95 93 96 102 104 98 94 99 103 101 96 93 94 96 100 112
339 4 80 42 91 299 273 307 350 62 244 15 82 136 147 54 95 119 98 95 94 95 94 91 88 87 94 96 94 92 93 84 77 77 81 86 89 92 90 89 96 101 117 133
136 87 78 54 60 346 341 331 124 254 26 90 117 129 119 115 114 110 104 98 96 92 91 91 93 88 85 89 94 95 88 87 88 87 88 87 87 87 86 81 82 123 165 181
23 162 188 159 202 242 312 75 97 117 114 101 125 124 125 123 120 111 99 93 89 85 83 84 82 86 88 92 114 124 111 103 92 91 82 74 64 47 346 270 243 225 227 227
298 173 146 54 279 239 160 126 97 100 99 99 117 121 126 131 129 121 107 94 81 64 46 38 39 39 46 83 188 206 204 176 147 101 56 24 331 322 306 285 269 259 244 242
205 123 192 273 279 288 255 215 149 105 120 121 131 129 135 134 123 111 100 80 55 38 24 10 354 342 342 339 322 302 269 257 251 247 250 271 291 295 292 290 281 272 266 264
190 188 147 225 190 118 25 193 189 178 184 177 175 171 165 155 144 141 129 19 346 353 347 342 344 336 325 314 310 302 297 289 277 270 262 255 254 252 262 271 272 280 274 277